sat.trackr.live / text

‹ back to catalog

STARLINK-4049

NORAD 52840 · 2022-062L

PAYLOAD ACTIVE UNKNOWN

§ Identity

Operator
Country
US
Launch date
2022-06-17
Launch site
AFETR
Launch vehicle
Mass (kg)
RCS (m²)

Purposes: comms

External: N2YO · Heavens-Above · Gunter

§ Orbital elements

Epoch: 2026-05-25T06:00:02.000160Z

Period
93.34 min
Inclination
53.2150°
Eccentricity
0.0001531
Mean motion
15.42716260 rev/d
Perigee alt
437.1 km
Apogee alt
439.1 km
Semi-major
6,816.2 km
B*
1.5021e-2
RAAN
43.4141°
Arg perigee
65.9475°
Mean anomaly
307.3286°
Rev number
585

§ Raw data

STARLINK-40491 52840U 22062L   26145.25002315  .00721412  00000+0  15021-1 0  99932 52840  53.2150  43.4141 0001531  65.9475 307.3286 15.42716260  5851

JSON: /api/v1/satellites/52840 · /tle

For live sub-satellite position, see the globe view (requires WebGL).

§ Visibility from observer

Set your observer location to see the next 7 days of passes ≥ 10°. The values pass through the URL so the page stays shareable.

No JS? Fill the form by hand. The geolocation button needs JavaScript.